Theta_e
311 310 310 306 306 307 308 308 309 308 305 303 301 302 300 299 298 296 296 295 296 296 298 298 298 298 296 296 296 296 296 296 295 295 295 295 294 293 293 292 292 292 293 294
309 311 308 307 307 306 308 308 306 306 305 304 304 303 300 297 298 298 297 295 296 296 297 298 298 298 295 295 295 296 296 296 295 295 294 294 294 293 293 292 292 292 293 295
311 310 308 308 306 306 305 306 304 304 304 304 303 302 299 298 298 297 296 296 295 296 297 298 298 296 295 295 295 296 296 296 295 295 294 294 293 293 293 293 292 292 292 295
307 307 307 308 307 304 306 304 305 306 303 303 303 306 299 297 297 294 295 295 295 296 297 298 298 296 296 295 295 296 296 296 295 295 294 293 293 293 292 292 292 292 292 295
309 308 307 308 307 304 305 304 306 306 305 305 304 303 302 297 297 294 294 295 295 296 297 298 297 296 296 295 295 296 296 295 295 294 293 293 293 293 292 292 292 292 292 294
306 306 304 304 304 304 303 305 305 304 303 307 306 305 303 297 297 295 294 295 295 296 297 298 297 296 296 295 296 296 296 295 295 294 293 293 293 293 293 293 292 292 292 293
308 307 305 304 305 304 303 303 306 307 306 308 304 302 303 298 296 295 294 296 295 296 297 298 296 296 296 295 295 296 295 295 294 294 293 293 293 293 293 293 292 292 292 292
311 311 306 302 303 304 304 303 305 310 307 304 302 303 304 297 297 297 296 296 295 296 296 298 296 296 296 295 295 296 295 295 294 293 293 293 294 294 293 293 293 292 292 292
311 312 303 302 301 302 304 304 301 301 303 305 304 303 299 296 295 295 295 295 295 295 296 297 296 296 296 295 295 296 295 294 294 293 293 293 293 294 293 293 293 293 292 292
309 310 304 303 303 301 303 301 305 302 307 309 304 302 303 297 295 293 292 294 295 295 296 297 296 296 296 295 295 296 295 294 294 293 293 293 293 294 294 293 293 293 292 292
306 307 306 305 304 303 301 301 300 300 301 304 304 306 298 298 296 294 294 295 295 295 296 297 297 296 295 295 295 296 295 294 294 293 293 293 293 294 294 294 293 293 293 292
306 304 307 307 302 301 302 303 301 305 304 297 298 304 299 296 297 298 297 296 295 295 296 297 297 296 294 295 295 296 295 294 294 293 293 293 294 294 294 294 294 294 293 293
304 305 306 307 305 303 303 301 300 299 299 300 303 306 295 295 296 297 297 296 295 295 296 297 297 296 294 295 296 296 295 294 294 294 294 294 294 294 294 294 294 294 294 293
305 304 306 307 307 305 304 302 301 301 298 300 302 303 300 295 294 295 296 296 295 295 295 296 297 296 294 295 296 296 295 294 294 294 294 294 294 295 295 295 295 294 294 293
303 305 305 306 307 306 307 304 300 300 301 305 305 303 304 299 294 297 298 296 295 295 295 296 297 296 294 295 296 296 295 294 294 294 294 294 294 294 294 294 294 294 294 294
300 305 306 308 305 305 306 304 301 300 300 300 301 303 300 299 299 297 297 296 295 295 295 296 297 296 294 296 296 296 295 295 294 294 294 293 293 294 294 294 294 294 294 294
302 303 303 307 306 305 307 303 303 299 298 301 303 303 295 295 295 298 298 297 296 295 295 295 297 297 295 296 296 297 296 295 294 294 294 294 294 294 294 293 292 293 293 293
301 303 301 303 306 310 309 302 302 303 302 299 300 299 297 299 300 301 301 300 297 296 295 295 297 297 295 296 296 297 296 295 295 295 295 295 294 294 293 292 292 292 292 292
301 302 300 306 305 307 307 300 302 303 307 303 302 300 299 298 297 298 299 299 297 296 296 295 297 297 295 295 296 297 297 295 295 295 295 295 294 293 292 292 292 292 292 292
301 299 302 299 305 310 307 305 303 304 307 305 303 299 295 296 298 296 303 300 297 296 295 295 297 298 295 295 296 297 297 296 295 295 295 295 294 293 292 292 292 292 291 291
300 297 302 301 302 305 304 303 304 309 308 306 305 302 297 296 302 302 301 300 297 296 295 294 296 298 296 295 295 297 297 296 295 295 294 294 294 293 293 293 292 292 292 292
304 302 301 300 304 309 303 302 306 308 309 308 307 306 304 304 303 302 300 299 297 296 295 294 296 298 296 295 295 296 297 297 296 295 295 294 294 293 293 293 293 293 293 292
304 305 305 305 307 306 305 307 309 308 309 308 309 309 307 305 303 303 300 298 297 296 295 294 296 299 297 295 295 296 297 297 297 296 295 294 294 294 293 293 293 293 293 293
299 302 305 304 307 304 308 309 310 308 309 310 309 308 308 307 304 303 300 298 297 296 295 294 296 298 298 295 294 295 296 296 297 297 296 295 294 294 294 294 294 294 294 294
304 303 304 305 306 309 311 312 312 311 310 308 308 308 308 306 305 304 300 298 297 296 295 294 295 297 299 296 294 294 295 295 296 297 297 296 295 295 294 294 294 294 294 294
304 305 306 308 310 310 312 313 312 312 313 312 309 308 307 306 305 303 300 299 298 296 294 294 295 296 298 298 294 294 294 294 295 296 297 297 297 296 295 295 294 294 294 294
Wind_Speed
3 5 1 4 4 2 1 1 3 2 4 5 7 5 8 16 12 11 9 7 4 2 4 5 9 13 13 10 10 11 14 15 18 20 21 21 24 20 21 21 20 19 20 22
5 1 2 2 1 1 3 2 3 0 3 5 2 6 4 12 9 13 11 9 5 3 3 5 9 12 11 9 10 11 13 15 17 20 20 21 23 20 20 21 21 18 21 23
4 1 3 2 2 2 1 2 1 3 3 1 4 3 1 2 3 7 9 8 5 4 4 6 9 11 8 10 10 11 13 15 17 18 19 20 19 21 23 21 22 22 22 23
3 0 1 1 0 2 2 1 1 1 3 2 2 5 2 3 5 7 10 10 6 4 4 6 8 8 7 10 10 10 12 15 17 17 18 21 18 23 22 20 22 22 22 23
1 1 1 1 1 2 1 0 1 1 2 3 1 2 3 1 6 8 13 11 7 4 4 5 7 7 7 9 9 10 12 14 15 17 18 18 18 19 18 19 23 24 21 22
2 1 2 1 1 2 3 3 5 4 2 2 1 3 4 5 6 4 10 11 8 6 4 4 5 6 6 7 7 10 12 14 14 16 18 15 17 18 18 22 24 26 22 21
1 0 1 2 1 1 3 4 3 3 4 4 2 2 8 5 5 7 16 12 10 7 4 2 3 3 5 7 8 10 12 14 14 15 17 14 14 17 18 20 21 24 24 23
3 3 1 2 1 1 1 3 4 3 2 5 2 5 4 3 7 7 9 10 10 7 4 3 3 3 5 7 8 10 12 13 13 14 15 15 13 15 18 20 18 23 22 21
4 2 0 3 2 1 1 2 2 5 2 2 3 6 1 2 4 8 10 13 11 7 5 4 4 3 5 5 7 9 11 12 12 13 14 13 14 14 17 19 18 22 20 19
4 2 1 0 2 4 1 4 2 3 0 4 5 6 5 6 10 7 11 17 13 9 7 5 5 4 6 4 5 7 8 9 12 13 13 13 14 13 14 16 18 21 21 17
3 3 1 2 3 5 1 1 5 4 3 4 2 7 6 8 9 12 20 18 15 12 9 6 6 5 4 3 5 5 7 8 10 12 12 12 13 11 13 15 17 18 20 16
2 4 3 5 1 1 1 2 4 4 3 1 4 6 0 5 9 18 17 16 14 12 10 8 7 6 5 4 3 3 5 7 9 11 11 11 12 10 12 14 16 16 18 15
5 0 2 1 1 2 3 4 4 5 3 6 5 6 1 0 5 14 16 16 15 15 13 10 9 7 7 5 3 2 4 5 7 8 9 10 11 11 12 13 15 15 15 15
1 2 6 6 5 5 4 5 5 5 3 4 7 8 5 7 9 15 17 17 17 17 15 11 12 10 9 7 4 2 3 5 6 7 9 10 11 11 12 13 14 13 14 15
4 4 4 5 6 4 6 5 9 9 6 7 3 8 5 8 13 27 24 20 21 20 20 16 14 12 10 8 5 3 1 3 3 5 8 9 11 12 12 12 12 13 14 14
1 2 2 4 1 6 6 9 11 10 4 10 6 18 7 8 11 17 24 26 26 24 22 18 15 14 12 10 7 5 3 2 3 4 6 8 10 11 12 13 13 13 13 14
5 5 3 5 4 5 8 9 15 7 6 8 8 11 6 4 10 20 25 30 30 27 24 21 17 15 12 11 9 7 5 3 3 3 5 6 8 10 11 13 13 13 13 14
6 5 3 3 3 2 6 3 6 13 5 14 6 6 11 6 10 14 20 26 28 26 25 21 18 17 15 13 11 9 7 5 4 3 4 5 6 8 9 11 12 13 14 15
2 4 2 3 3 8 2 4 8 8 8 20 19 8 14 6 6 15 23 24 22 25 23 19 16 16 16 14 13 11 9 8 6 4 4 4 5 7 8 9 11 12 13 14
5 6 4 3 4 5 5 3 7 4 6 6 24 13 16 16 2 5 18 27 24 24 23 21 19 19 18 16 14 13 11 10 8 6 5 5 4 5 6 8 10 11 12 13
3 2 5 2 3 9 6 6 9 3 7 6 21 22 29 8 13 4 9 25 25 26 25 22 21 20 17 17 16 15 13 11 9 8 7 6 6 5 5 6 7 9 10 11
8 7 4 3 2 9 13 8 8 5 3 7 13 20 29 28 17 9 11 21 27 28 27 24 22 22 21 19 18 16 14 12 11 9 8 7 7 6 7 7 7 8 9 10
3 7 6 10 7 3 29 8 21 4 4 7 11 14 19 23 20 15 16 22 25 27 27 23 21 22 22 21 20 18 15 14 13 11 9 8 8 8 8 8 8 8 9 10
5 7 3 2 5 17 21 30 24 16 17 7 9 12 16 20 23 20 19 23 25 26 27 24 23 24 24 23 21 18 17 16 15 13 11 9 9 9 9 10 10 10 10 11
3 9 5 6 12 18 27 26 28 33 30 20 16 14 15 18 22 23 22 24 24 25 26 26 24 23 23 23 22 20 19 18 17 15 13 11 10 10 10 11 11 11 12 13
9 7 5 6 9 5 10 12 10 18 29 31 27 21 18 19 21 22 23 23 23 25 26 27 25 23 22 23 23 22 20 19 18 18 16 14 13 12 11 11 11 14 13 13
Wind_Direction
41 67 236 202 191 221 146 215 261 206 175 151 206 250 221 202 202 183 191 190 197 285 298 309 331 338 339 343 355 359 1 1 358 357 357 357 360 0 5 6 1 358 352 347
27 208 185 175 83 253 217 245 269 306 136 172 196 251 276 189 210 204 204 194 207 252 275 309 329 337 343 355 357 359 0 1 360 359 0 359 355 7 7 5 4 359 354 358
156 168 137 144 48 45 62 213 214 242 19 226 330 295 333 195 174 184 194 195 217 262 296 317 331 341 353 0 1 2 359 360 358 360 358 354 2 6 3 5 6 5 359 3
108 89 128 137 203 123 290 189 114 150 65 274 48 286 270 227 204 191 191 204 218 254 292 315 336 348 3 5 3 1 357 359 356 360 1 0 9 4 4 6 5 3 5 11
230 102 68 162 205 146 211 200 95 83 118 46 307 72 262 143 245 225 214 215 223 247 279 319 344 354 4 2 5 0 357 358 356 359 0 7 12 8 11 8 8 5 11 18
112 88 80 119 95 112 128 91 47 51 87 7 225 129 257 196 212 193 206 211 219 230 258 321 342 351 358 5 3 356 357 357 359 1 1 11 14 11 10 10 8 7 10 12
33 150 63 73 106 71 84 66 340 349 3 231 145 76 249 223 214 203 189 196 208 217 239 304 322 336 349 353 353 354 356 358 3 1 5 13 14 13 11 7 7 6 7 9
148 314 129 22 83 219 88 135 144 280 293 285 314 243 261 212 170 160 175 183 199 210 228 270 283 312 342 339 341 351 357 0 3 2 8 14 11 11 12 11 11 9 6 8
140 259 56 65 69 87 120 37 177 103 11 5 257 288 287 138 201 193 186 189 205 212 218 246 256 271 319 319 334 352 356 358 2 4 7 11 11 11 14 18 18 14 11 12
189 87 349 55 106 42 55 161 56 21 94 291 291 283 247 232 228 216 205 205 211 212 213 238 248 267 302 302 332 347 352 359 5 6 8 10 10 10 12 12 15 15 16 18
136 108 311 28 195 180 63 33 55 114 118 170 306 274 209 209 199 203 214 211 209 208 213 230 232 259 282 303 317 340 354 3 9 10 11 11 12 12 13 12 14 16 17 20
200 136 188 215 134 118 189 200 146 117 235 80 144 274 181 226 219 204 204 204 206 204 212 217 223 246 243 259 293 333 353 4 11 13 9 12 15 18 14 13 13 15 19 20
201 261 16 308 19 11 219 195 116 108 92 200 140 262 47 246 194 200 197 195 198 199 210 214 224 239 242 241 267 319 357 6 11 13 10 11 17 18 11 9 10 13 16 20
93 159 180 196 201 132 192 189 172 138 126 184 228 284 238 224 216 206 208 200 200 202 210 217 222 226 223 220 239 277 349 357 6 10 9 9 11 10 3 1 1 358 5 11
121 235 191 252 229 191 214 186 179 194 187 185 247 220 237 212 210 216 214 202 199 202 208 218 219 223 219 214 227 238 294 327 350 2 3 8 7 6 357 356 353 355 357 0
68 240 207 284 351 206 255 223 199 214 223 266 281 281 215 245 216 211 209 203 204 207 211 216 216 218 216 209 214 222 237 272 313 343 356 6 4 4 358 359 356 350 354 2
150 143 110 266 340 320 290 223 190 188 205 175 200 231 164 196 206 213 207 207 209 210 208 213 214 214 213 208 213 215 223 241 287 327 340 360 9 6 1 3 2 1 4 4
141 118 107 236 347 288 243 161 181 206 214 213 256 204 197 206 210 218 211 209 211 209 208 211 211 209 208 207 212 212 215 226 247 278 314 343 5 6 10 9 12 16 16 15
99 120 93 140 207 293 233 199 162 172 270 206 220 197 197 191 201 244 216 214 217 209 206 210 209 209 210 209 209 211 216 222 231 253 282 311 347 8 16 17 19 22 23 18
72 73 122 109 155 240 245 186 193 184 295 204 198 177 163 151 176 252 215 208 204 205 205 207 205 207 211 210 210 212 216 223 232 246 265 291 314 343 9 16 17 16 17 13
106 26 173 180 226 285 234 159 146 113 236 177 194 193 168 187 202 180 186 195 199 198 200 204 210 211 210 212 212 215 221 224 233 245 257 276 292 310 330 347 357 359 5 1
167 151 191 96 94 270 156 116 171 230 192 186 191 200 199 206 203 200 187 189 194 198 200 207 211 209 211 212 214 217 222 226 233 244 256 269 278 294 309 322 331 338 340 347
233 188 181 186 212 248 188 212 210 243 239 214 213 213 214 211 208 204 195 194 198 201 204 209 212 212 214 216 216 219 219 226 233 243 253 267 279 286 296 308 318 323 330 337
236 178 215 103 250 238 236 234 243 240 240 250 239 232 221 219 213 210 202 200 202 203 206 210 214 216 217 217 218 220 221 224 230 237 249 260 273 283 294 301 307 312 317 320
190 142 192 262 283 279 272 257 255 247 244 244 242 239 237 223 217 215 209 206 209 210 207 212 218 223 222 221 222 222 224 227 230 234 241 250 262 272 282 292 298 300 304 313
187 192 180 224 239 243 281 307 318 254 246 242 240 238 233 226 224 219 215 212 213 214 212 214 218 221 222 225 224 225 228 231 234 235 239 246 253 261 270 278 287 299 306 312